Location: Newark
(42.7133°N, 87.7910°W)
Time: 02:07:05
(UTC+00:00)

Vanguard 1 - Pass Details

Date: 21 September 2019
Orbit: 653 x 3830 km, 34.2° (Epoch: 22 October)

Event Time Altitude Azimuth Distance (km) Brightness Sun altitude
Rises 06:56:04 0° 225° (SW) 7,506 - -43.6°
Reaches altitude 10° 07:01:08 10° 220° (SW) 6,707 - -43.2°
Exits shadow 07:21:01 49° 164° (SSE) 4,412 12.9 -41.4°
Maximum altitude 07:22:46 49° 154° (SSE) 4,347 12.9 -41.2°
Drops below altitude 10° 07:40:43 10° 87° (E) 5,709 14.3 -39.3°
Sets 07:44:33 0° 82° (E) 6,374 14.8 -38.8°
